Погода в Свири

Россия / Санкт-Петербург и Ленинградская область     60°57′07″N   34°05′08″E
темп.,
°C
ветер,
м/с
пор.,
м/с
влажн.,
%
обл.,
%
осадки,
мм/ч
давл.,
гПа
погр.,
м
6 августа, пт
пт600:00+13всв387098 0.0 1017217
03:00+12св267196 0.0 1017144
06:00+11всв268382 0.0 1016187
09:00+16в5106397 0.0 10161178
12:00+14в41079100 0.1 1017932
15:00+14в4107399 0.1 1017891
18:00+16всв5116384 0.0 10161193
21:00+13всв4127856 0.0 1016698
7 августа, сб
сб700:00+13всв4128552 0.0 1016577
03:00+12всв41093100 0.0 1016561
06:00+13всв41086100 0.0 1015687
09:00+16всв5117799 0.0 1014695
12:00+18в5970100 0.0 10141030
15:00+18в51077100 0.0 1013971
18:00+16в61395100 1.4 1012923
21:00+15в61497100 10.1 10111064
8 августа, вс
вс800:00+15в51297100 3.0 1011769
03:00+15в41198100 3.1 1011605
06:00+15в4998100 0.1 1010527
09:00+15в3899100 1.1 1011434
12:00+17ююв1391100 1.0 1012504
15:00+21с117452 1.6 1012784
18:00+19в008525 2.0 1013166
21:00+16всв11956 2.4 101413
9 августа, пн
пн900:00+14всв00976 0.0 101511
03:00+13в1198100 0.0 101511
06:00+14ююв119797 0.0 101636
09:00+17юв238759 0.0 1016331
12:00+23ююв23587 0.0 1016964
15:00+25ююв344791 0.0 10151590
18:00+22вюв2467100 0.0 101597
21:00+19вюв2484100 0.1 101599
10 августа, вт
вт1000:00+16зюз259798 0.0 1016105
03:00+15ююз2599100 0.0 1017131
06:00+15ююз2699100 0.0 1017230
09:00+19зюз358350 0.0 1018573
12:00+24юз24528 0.0 10181517
15:00+25зюз344499 0.0 10182147
18:00+22зсз116195 0.0 101880
21:00+19с1170100 0.0 101811